IOR-W (EGNOS/PRN 126)

Last updated on Mon Apr 28 2025 00:03:18 GMT+0000 (Coordinated Universal Time)

1 28899U 05044A 25117.14747488 -.00000257 00000+0 00000+0 0 9991 2 28899 4.5614 43.3629 0002848 8.4863 0.1246 1.00272190 71357

Satellite not in orbit

IOR-W (EGNOS/PRN 126)